Regional Weather Roundup
Issued by NWS

Home | Current Version | Previous Version | Text Only | Print | Product List | Glossary On
Versions: 1 2 3 4 5 6 7 8 9 10 11 12 13 14 15 16 17 18 19 20 21 22 23 24 25 26 27 28 29 30 31 32 33 34 35 36 37 38 39 40 41 42 43 44 45 46 47 48 49 50
000
ASUS44 KFWD 281101
RWRTX
NORTH TEXAS HOURLY WEATHER ROUNDUP
NATIONAL WEATHER SERVICE FORT WORTH TX
600 AM CDT MON JUL 28 2014

NOTE: "FAIR" INDICATES FEW OR NO CLOUDS BELOW 12,000 FEET WITH NO
SIGNIFICANT WEATHER AND/OR OBSTRUCTIONS TO VISIBILITY.

TXZ118-119-281200-
DALLAS/FORT WORTH METROPLEX

CITY           SKY/WX    TMP DP  RH WIND       PRES   REMARKS
DFW AIRPORT    CLOUDY    85  69  58 W7        30.06R
DALLAS LOVE    PTCLDY    83  70  64 CALM      30.06R
FTW MEACHAM    CLEAR     82  69  64 CALM      30.05R
DAL-EXECUTIVE  CLEAR     84  69  60 VRB6      30.05R
FTW-ALLIANCE   MOCLDY    81  69  67 NE7       30.07R
FTW-NAS-JRB    PTCLDY    83  67  58 S5        30.09R
ARLINGTON      CLEAR     81  69  67 CALM      30.06R
GRAND PRAIRIE  CLEAR     81  69  65 CALM      30.07R
LANCASTER      CLEAR     78  68  72 CALM      30.06S
$$

TXZ091>094-102>105-117-120-121-131>134-281200-
NORTH CENTRAL TEXAS

CITY           SKY/WX    TMP DP  RH WIND       PRES   REMARKS
SHRMAN/DENISON MOCLDY    80  65  60 N6        30.10S
GAINESVILLE    MOCLDY    79  73  83 N10       30.12R
BRIDGEPORT     CLOUDY    80  65  61 CALM      30.10R
DECATUR        MOCLDY    79  69  70 NE6       30.10R
DENTON         PTCLDY    80  74  81 NE7       30.08R
MCKINNEY       CLEAR     78  73  84 N5        30.07R
ROCKWALL       CLOUDY    79  72  78 CALM      30.06R
TERRELL        PTCLDY    79  74  84 CALM      30.06R
WAXAHACHIE     PTCLDY    80  67  65 SW5       30.07R
CLEBURNE       CLEAR     79  73  83 S5        30.08S
$$

TXZ083>090-098>101-113>116-127>130-139>142-154-155-281200-
WESTERN NORTH TEXAS

CITY           SKY/WX    TMP DP  RH WIND       PRES   REMARKS
WICHITA FALLS  TSTM      76  72  87 E14       30.09R
WF-KICKAPOO    CLOUDY    79  70  73 E14       30.10R
VERNON         CLOUDY    79  66  64 E14       30.11R
ABILENE        CLEAR     78  63  59 SE6       30.10R
ABILENE-DYESS  CLEAR     76  63  63 S3        30.09R
BRECKENRIDGE   CLEAR     82  63  53 S3        30.08R
MINERAL WELLS  CLEAR     76  67  73 SE6       30.06R
STEPHENVILLE   CLEAR     75  66  73 CALM      30.12R
COMANCHE       CLEAR     75  66  73 S3        30.10S
BROWNWOOD      PTCLDY    72  64  78 CALM      30.10S
COLEMAN        CLEAR     74  64  69 CALM      30.11S
$$

TXZ143>147-156>162-174-175-281200-
CENTRAL TEXAS

CITY           SKY/WX    TMP DP  RH WIND       PRES   REMARKS
WACO           CLEAR     77  70  79 S8        30.07R
WACO-MCGREGOR  CLEAR     73  64  73 S6        30.10R
HILLSBORO      CLEAR     76  69  78 S3        30.08R
CORSICANA      PTCLDY    78  71  79 S6        30.08R
MEXIA          CLEAR     75  71  87 SW3       30.07R
TEMPLE         CLEAR     73  64  73 S6        30.09R
KILLEEN        CLEAR     75  68  78 S6        30.09R
KILLEEN-SKYLRK CLEAR     75  64  69 S5        30.09R
FORT HOOD      CLEAR     78  69  73 CALM      30.09R
HAMILTON       CLEAR     74  67  78 S8        30.11S
LAMPASAS       CLEAR     73  69  87 CALM      30.09S
$$

TXZ095>097-106>112-122>126-135>138-148>153-164>167-281200-
EAST TEXAS

CITY           SKY/WX    TMP DP  RH WIND       PRES   REMARKS
PARIS          CLOUDY    79  70  73 CALM      30.06F
CLARKSVILLE    CLOUDY    78  75  92 CALM      30.06R
MOUNT PLEASANT MOCLDY    80  73  77 W5        30.07S
MINEOLA        PTCLDY    79  73  83 CALM      30.07R
TYLER          CLEAR     79  72  79 SW7       30.07R
LONGVIEW       PTCLDY    77  73  87 W3        30.06R
MARSHALL       MOCLDY    78  75  89 SW3       30.07R
ATHENS         CLEAR     73  72  94 CALM      30.07R
JACKSONVILLE   PTCLDY    77  73  90 SW5       30.10S
HENDERSON      CLEAR     76  74  93 CALM      30.08S
NACOGDOCHES    CLEAR     75  73  94 CALM      30.08S
LUFKIN         CLEAR     78  74  87 CALM      30.07R
$$

SUPPLEMENTAL OBSERVATIONS (CENTRAL)

CITY           SKY/WX    TMP DP  RH WIND       PRES   REMARKS
$$

SUPPLEMENTAL OBSERVATIONS (WEST)

CITY           SKY/WX    TMP DP  RH WIND       PRES   REMARKS
$$

SUPPLEMENTAL OBSERVATIONS (EAST)

CITY           SKY/WX    TMP DP  RH WIND       PRES   REMARKS
$$

SUPPLEMENTAL OBSERVATIONS ARE A COLLECTION OF AUTOMATED INSTRUMENTS
THAT ARE MAINTAINED BY A VARIETY OF FEDERAL AND STATE AGENCIES.
CERTAIN ELEMENTS...SUCH AS HUMIDITY VALUES AND SUSTAINED WIND
SPEEDS...MAY BE APPROXIMATED.




USA.gov is the U.S. government's official web portal to all federal, state and local government web resources and services.